Location: Sabalos
(43.2860°N, 0.1414°E)
Time: 08:53:27
(UTC+00:00)

Meteor 2-3 Rocket - Pass Details

Date: 05 July 2020
Orbit: 843 x 884 km, 81.2° (Epoch: 15 August)

Event Time Altitude Azimuth Distance (km) Brightness Sun altitude
Exits shadow 23:21:01 42° 121° (ESE) 1,202 4.1 -23.3°
Maximum altitude 23:21:59 46° 93° (E) 1,136 4.2 -23.3°
Drops below altitude 10° 23:27:24 10° 22° (NNE) 2,514 7.0 -23.5°
Sets 23:29:56 0° 16° (NNE) 3,463 8.0 -23.6°
